Simultaneous Nadir Overpasses (SNOs) Predictions

Prediction of SNOs over PacNW region [( 10.00, 139.50) to ( 22.70, 165.60)] between NOAA-19 and NPP Satellites:

Table of predicted SNOs over PacNW region for the next 30.0 days since TLE Epoch: 10/5/2013
Index Date (NOAA-19) Time (NOAA-19) NOAA-19 Lat,Lon Date (NPP) Time (NPP) NPP Lat,Lon Distance(km) Time Diff (sec)
1 10/05/2013 04:06:53 22.67, 139.95 10/05/2013 04:06:11 21.92, 136.36 378.96 42
2 10/05/2013 15:00:52 10.02, 161.78 10/05/2013 14:57:16 8.34, 158.41 413.77 216
3 10/17/2013 03:33:23 10.07, 150.57 10/17/2013 03:36:59 7.95, 146.01 553.12 216
4 10/17/2013 16:09:36 22.03, 146.72 10/17/2013 16:09:25 22.83, 142.83 409.70 11
5 10/18/2013 03:25:58 22.67, 150.28 10/18/2013 03:22:22 23.50, 147.07 340.23 216
6 10/30/2013 02:55:18 20.39, 158.45 10/30/2013 02:55:57 19.46, 154.44 431.77 39
7 10/30/2013<
